2022/12/18 00:00:00, 4.7,-0.4
2022/12/18 00:10:00, 5.5,-1.1
2022/12/18 00:20:00, 6.3,-0.9
2022/12/18 00:30:00, 7.5,-1.1
2022/12/18 00:40:00, 8.5,-0.8
2022/12/18 00:50:00, 9.2,-1.2
2022/12/18 01:00:00,10.5,-1.3
2022/12/18 01:10:00,11.8,-1.4
2022/12/18 01:20:00,13.7,-1.6
2022/12/18 01:30:00,14.7,-1.5
2022/12/18 01:40:00,15.5,-1.7
2022/12/18 01:50:00,16.3,-1.6
2022/12/18 02:00:00,17.5,-1.5
2022/12/18 02:10:00,18.9,-1.6
2022/12/18 02:20:00,19.8,-1.4
2022/12/18 02:30:00,21.1,-1.8
2022/12/18 02:40:00,21.6,-1.9
2022/12/18 02:50:00,22.3,-1.8
2022/12/18 03:00:00,23.1,-2.3
2022/12/18 03:10:00,23.7,-2.1
2022/12/18 03:20:00,24.2,-2.3
2022/12/18 03:30:00,24.7,-2.5
2022/12/18 03:40:00,25.3,-2.3
2022/12/18 03:50:00,25.4,-2.6
2022/12/18 04:00:00,25.9,-2.7
2022/12/18 04:10:00,26.7,-2.4
2022/12/18 04:20:00,27.2,-2.9
2022/12/18 04:30:00,24.6,-2.9
2022/12/18 04:40:00,24.7,-3.2
2022/12/18 04:50:00,24.8,-3.3
2022/12/18 05:00:00,25.0,-2.8
2022/12/18 05:10:00,24.9,-3.0
2022/12/18 05:20:00,24.9,-3.3
2022/12/18 05:30:00,24.7,-3.2
2022/12/18 05:40:00,24.5,-2.9
2022/12/18 05:50:00,24.5,-3.3
2022/12/18 06:00:00,24.6,-3.4
2022/12/18 06:10:00,24.6,-3.2
2022/12/18 06:20:00,24.5,-3.3
2022/12/18 06:30:00,24.4,-3.3
2022/12/18 06:40:00,24.2,-3.6
2022/12/18 06:50:00,24.1,-3.1
2022/12/18 07:00:00,24.2,-3.6
2022/12/18 07:10:00,24.1,-3.8
2022/12/18 07:20:00,24.0,-3.5
2022/12/18 07:30:00,23.9,-3.9
2022/12/18 07:40:00,23.7,-3.5
2022/12/18 07:50:00,23.5,-3.4
2022/12/18 08:00:00,23.4,-4.0
2022/12/18 08:10:00,23.5,-3.2
2022/12/18 08:20:00,23.4,-3.4
2022/12/18 08:30:00,23.4,-2.7
2022/12/18 08:40:00,23.3,-2.8
2022/12/18 08:50:00,23.2,-2.6
2022/12/18 09:00:00,23.1,-2.5
2022/12/18 09:10:00,23.0,-2.0
2022/12/18 09:20:00,22.9,-2.9
2022/12/18 09:30:00,22.8,-3.4
2022/12/18 09:40:00,22.7,-3.9
2022/12/18 09:50:00,23.0,-3.5
2022/12/18 10:00:00,23.1,-2.7
2022/12/18 10:10:00,23.0,-1.9
2022/12/18 10:20:00,22.8,-2.2
2022/12/18 10:30:00,22.9,-2.8
2022/12/18 10:40:00,22.7,-3.0
2022/12/18 10:50:00,22.4,-3.0
2022/12/18 11:00:00,22.7,-3.1
2022/12/18 11:10:00,22.7,-2.5
2022/12/18 11:20:00,22.8,-3.0
2022/12/18 11:30:00,23.3,-3.0
2022/12/18 11:40:00,23.7,-3.2
2022/12/18 11:50:00,23.7,-2.8
2022/12/18 12:00:00,24.0,-2.9
2022/12/18 12:10:00,23.9,-3.0
2022/12/18 12:20:00,24.4,-3.2
2022/12/18 12:30:00,24.8,-3.5
2022/12/18 12:40:00,25.4,-2.5
2022/12/18 12:50:00,25.5,-2.7
2022/12/18 13:00:00,25.6,-3.1
2022/12/18 13:10:00,26.2,-3.7
2022/12/18 13:20:00,26.8,-3.0
2022/12/18 13:30:00,27.9,-3.3
2022/12/18 13:40:00,29.0,-3.6
2022/12/18 13:50:00,30.1,-3.4
2022/12/18 14:00:00,31.0,-3.2
2022/12/18 14:10:00,31.7,-3.7
2022/12/18 14:20:00,32.6,-3.1
2022/12/18 14:30:00,33.3,-3.3
2022/12/18 14:40:00,33.5,-2.9
2022/12/18 14:50:00,34.1,-3.1
2022/12/18 15:00:00,34.3,-3.3
2022/12/18 15:10:00,34.4,-3.3
2022/12/18 15:20:00,35.3,-3.4
2022/12/18 15:30:00,35.9,-3.4
2022/12/18 15:40:00,36.1,-3.6
2022/12/18 15:50:00,36.5,-3.5
2022/12/18 16:00:00,36.6,-3.3
2022/12/18 16:10:00,36.6,-3.7
2022/12/18 16:20:00,36.6,-3.6
2022/12/18 16:30:00,36.5,-3.4
2022/12/18 16:40:00,36.9,-3.9
2022/12/18 16:50:00,37.0,-3.5
2022/12/18 17:00:00,36.7,-3.5
2022/12/18 17:10:00,37.0,-3.5
2022/12/18 17:20:00,37.4,-3.7
2022/12/18 17:30:00,38.1,-3.4
2022/12/18 17:40:00,38.6,-3.7
2022/12/18 17:50:00,38.7,-3.9
2022/12/18 18:00:00,32.7,-3.6
2022/12/18 18:10:00,28.9,-3.9
2022/12/18 18:20:00,29.5,-3.6
2022/12/18 18:30:00,30.8,-3.8
2022/12/18 18:40:00,31.1,-3.8
2022/12/18 18:50:00,31.7,-3.9
2022/12/18 19:00:00,33.1,-4.1
2022/12/18 19:10:00,33.2,-3.9
2022/12/18 19:20:00,33.9,-3.9
2022/12/18 19:30:00,34.2,-3.9
2022/12/18 19:40:00,35.0,-3.5
2022/12/18 19:50:00,35.8,-3.6
2022/12/18 20:00:00,36.3,-3.6
2022/12/18 20:10:00,36.9,-3.6
2022/12/18 20:20:00,36.8,-3.8
2022/12/18 20:30:00,37.0,-3.6
2022/12/18 20:40:00,36.9,-3.5
2022/12/18 20:50:00,36.7,-3.3
2022/12/18 21:00:00,36.9,-3.4
2022/12/18 21:10:00,36.7,-3.9
2022/12/18 21:20:00,37.0,-3.2
2022/12/18 21:30:00,37.2,-3.5
2022/12/18 21:40:00,37.5,-3.8
2022/12/18 21:50:00,38.1,-3.5
2022/12/18 22:00:00,38.1,-3.6
2022/12/18 22:10:00,38.2,-3.4
2022/12/18 22:20:00,38.3,-3.4
2022/12/18 22:30:00,38.7,-3.4
2022/12/18 22:40:00,39.2,-3.2
2022/12/18 22:50:00,39.9,-3.3
2022/12/18 23:00:00,40.1,-3.2
2022/12/18 23:10:00,40.8,-3.1
2022/12/18 23:20:00,41.5,-3.3
2022/12/18 23:30:00,41.7,-3.3
2022/12/18 23:40:00,41.6,-3.2
2022/12/18 23:50:00,42.0,-3.5
